www.pogodaiklimat.ru

Погода и климат >> Архив погоды >> Иран >> Джаск


ПОГОДА в Джаске

  • Прогноз погоды в Джаске
  • Монитор погоды в Джаске

АРХИВ ПОГОДЫ в Джаске

Время (UTC), дата Ветер
(напр.,м/с)
 
Видим.   Явления Облачность Т
(С)
Тd
(С)
f
(%)
Тe
(С)
Тes
(С)
Комфортность P
(гПа)
Po
(гПа)
Тmin
(С)
Tmax
(С)
R
(мм)
R24
(мм)
S
(см)
00 13.08 В 6 5000 м мгла 5/0
[As trans]
+30.7 +26.4 78 +47 +47 опасность
перегрева
997.6 997.0
03 13.08 В 8 5000 м мгла ясно +30.8 +25.7 74 +45 +46 опасность
перегрева
999.1 998.6 +30.6
06 13.08 В 8 6000 м мгла 6/0 2000 м
[As trans]
1000.3 999.8
09 13.08 ЮВ 7 6000 м мгла 6/0 2000 м
[As trans]
+33.2 +26.1 66 +49 +53 опасность
перегрева
999.7 999.1
12 13.08 ЮВ 5 6000 м мгла 6/0 2000 м
[As trans]
+32.1 +30.1 89 +59 +61 опасность
перегрева
998.2 997.6
15 13.08 ЮВ 4 6000 м мгла 5/0 2000 м
[Ac As]
+31.6 +26.7 75 +49 +49 опасность
перегрева
998.5 997.9 +33.9
18 13.08 ЮВ 3 6000 м мгла 5/0 2000 м
[Ac As]
+31.2 +27.0 78 +49 +49 опасность
перегрева
999.9 999.3
21 13.08 В 4 6000 м мгла 6/0
[As trans]
+31.1 +26.3 76 +47 +47 опасность
перегрева
999.6 999.0
00 14.08 В 5 5000 м дымка ясно +30.6 +27.2 82 +48 +48 опасность
перегрева
999.1 998.6
03 14.08 В 4 5000 м дымка ясно +30.3 +27.1 83 +48 +49 опасность
перегрева
1000.6 1000.1 +30.2 666
06 14.08 В 5 7000 м мгла 6/0 2000 м
[As trans]
+32.0 +27.7 78 +52 +57 опасность
перегрева
1001.5 1001.0
09 14.08 ЮВ 5 10 км ясно +32.3 +27.6 76 +52 +62 опасность
перегрева
1000.4 999.9
12 14.08 Ю 3 10 км ясно +33.0 +30.0 84 +60 +66 опасность
перегрева
998.4 997.8
15 14.08 Ю 2 10 км ясно +31.7 +26.3 73 +48 +48 опасность
перегрева
999.0 998.4 +33.0 666
18 14.08 ЮВ 2 8000 м мгла ясно +31.3 +26.2 74 +47 +47 опасность
перегрева
1000.4 999.9
21 14.08 В 4 6000 м дымка ясно +31.0 +27.1 80 +49 +49 опасность
перегрева
1000.4 999.8
00 15.08 В 7 5000 м дымка ясно +30.4 +27.5 85 +49 +49 опасность
перегрева
1000.4 999.9
03 15.08 В 6 5000 м дымка ясно +30.3 +27.6 86 +49 +50 опасность
перегрева
1002.0 1001.5 +30.0 666
06 15.08 ЮВ 5 7000 м мгла ясно +31.9 1002.7 1002.1
09 15.08 Ю 4 8000 м мгла ясно +32.1 +27.5 77 +51 +65 опасность
перегрева
1001.5 1001.0
12 15.08 ЮЗ 3 10 км ясно +33.1 +30.1 84 +60 +66 опасность
перегрева
999.5 998.9
15 15.08 ЮЗ 2 10 км ясно +31.7 +26.6 74 +48 +48 опасность
перегрева
999.4 998.8 +33.2
18 15.08 ЮВ 3 8000 м дымка ясно +31.1 +27.7 82 +50 +50 опасность
перегрева
1001.3 1000.8
21 15.08 В 5 6000 м дымка ясно +30.8 +28.0 85 +51 +51 опасность
перегрева
1001.1 1000.5
00 16.08 В 6 5000 м дымка ясно +30.0 +27.6 87 +49 +49 опасность
перегрева
1000.7 1000.1
03 16.08 В 4 5000 м дымка 3/3 450 м
[St]
+29.8 +27.4 87 +48 +49 опасность
перегрева
1001.1 1000.6 +29.6
06 16.08 ЮВ 3 7000 м мгла 3/3 600 м
[Cu hum]
+31.8 +30.1 91 +59 +68 опасность
перегрева
1001.7 1001.1
09 16.08 Ю 3 8000 м мгла ясно +32.5 +27.3 74 +51 +68 опасность
перегрева
1000.5 1000.0
12 16.08 ЮЗ 2 10 км ясно +33.6 +30.1 82 +61 +68 опасность
перегрева
998.3 997.8
15 16.08 нст 1 10 км ясно +31.9 +26.1 71 +47 +47 опасность
перегрева
997.6 997.1 +33.8 666
18 16.08 ЮВ 2 8000 м мгла ясно +31.0 +27.0 79 +48 +48 опасность
перегрева
998.9 998.3
21 16.08 штиль 0 6000 м дымка ясно +30.1 +27.0 84 +48 +48 опасность
перегрева
997.8 997.3
00 17.08 В 3 5000 м дымка ясно +30.4 +27.5 85 +49 +49 опасность
перегрева
997.3 996.8
03 17.08 В 5 5000 м дымка 3/3 450 м
[St]
+29.9 +27.7 88 +49 +49 опасность
перегрева
998.6 998.0 +29.6
06 17.08 ЮВ 5 5000 м мгла 4/4 600 м
[Cu hum]
+32.0 +27.5 77 +51 +56 опасность
перегрева
1000.1 999.5
09 17.08 ЮВ 7 7000 м мгла ясно +31.9 +27.5 78 +51 +57 опасность
перегрева
999.0 998.4 666
12 17.08 Ю 5 7000 м мгла ясно +32.1 997.5 996.9
15 17.08 ЮВ 3 7000 м мгла ясно +31.0 +26.8 78 +48 +48 опасность
перегрева
997.8 997.2 +32.2
18 17.08 ЮВ 3 6000 м дымка ясно +30.4 +27.3 84 +49 +49 опасность
перегрева
998.8 998.2
21 17.08 ЮВ 5 6000 м дымка ясно +30.2 +27.5 86 +49 +49 опасность
перегрева
998.5 998.0
00 18.08 В 6 6000 м дымка ясно +29.6 +26.9 85 +46 +46 опасность
перегрева
999.4 998.9
03 18.08 В 7 6000 м дымка 5/5 450 м
[St]
+29.3 +26.8 86 +46 +46 опасность
перегрева
1001.8 1001.2 +29.3
06 18.08 В 7 6000 м мгла 5/5 450 м
[St]
+31.2 +26.5 76 +48 +50 опасность
перегрева
1003.1 1002.6
09 18.08 ЮВ 7 7000 м мгла ясно +31.5 +26.4 74 +48 +53 опасность
перегрева
1002.8 1002.2
12 18.08 Ю 5 8000 м мгла ясно +31.5 1001.0 1000.5
15 18.08 Ю 4 10 км ясно +30.4 +26.6 80 +47 +47 опасность
перегрева
1001.0 1000.5 +31.6
18 18.08 Ю 2 8000 м дымка ясно +29.9 +26.3 81 +46 +46 опасность
перегрева
1002.9 1002.3
21 18.08 ЮВ 4 8000 м дымка ясно +29.9 +26.3 81 +46 +46 опасность
перегрева
1002.0 1001.5
00 19.08 В 6 6000 м дымка ясно +29.2 +26.2 84 +44 +44 опасность
перегрева
1002.5 1001.9
03 19.08 В 6 5000 м дымка 4/4 450 м
[St]
+29.2 +26.1 83 +44 +44 опасность
перегрева
1004.5 1003.9 +29.0
06 19.08 В 5 7000 м мгла 4/4 600 м
[Cu hum]
+31.1 +26.4 76 +47 +52 опасность
перегрева
1005.7 1005.1
09 19.08 ЮВ 6 8000 м мгла ясно +31.5 +26.3 74 +48 +56 опасность
перегрева
1004.6 1004.1
12 19.08 Ю 6 8000 м мгла ясно +31.3 1003.2 1002.6
15 19.08 Ю 5 8000 м дымка ясно +30.1 +26.3 80 +46 +46 опасность
перегрева
1003.2 1002.6 +31.7 666
18 19.08 ЮВ 3 6000 м дымка ясно +29.7 +26.4 82 +45 +45 опасность
перегрева
1004.8 1004.2
21 19.08 ЮВ 5 6000 м дымка ясно +29.8 +26.3 82 +46 +46 опасность
перегрева
1004.2 1003.6

 

Местоположение метеостанции Джаск (Иран): широта 25.63 долгота 57.77 высота над уровнем моря 3 м.

В архиве по умолчанию представлена погода в Джаске за последнюю неделю. Архивные данные за месяц целиком и за предыдущие месяцы, начиная с января 2011 года, Вы можете получить, выбрав интересующий диапазон дат из раскрывающегося списка и нажав кнопку "Ввод!".


*Определитесь, кто Вы:
робот инопланетянин человек

Внимание! Время в таблицах - всемирное. Для получения местного времени необходимо прибавить поправку, которая равна 3.5 ч.

Смотрите также архив погоды в соседних городах и на ближайших метеорологических станциях:

Погода в Дибе (Оман) (152 км)
Погода в Фуджейре (ОАЭ) (156 км)
Погода в Эль-Хасаб аэропорту (Оман) (165 км)
Погода в Эль-Хасабе (Оман) (166 км)
Погода в Сухаре (Оман) (173 км)
Погода в Рай-эль-Хайма аэропорту (ОАЭ) (185 км)
Погода в Эс-Сувейке (Оман) (208 км)
Погода в Бендер-Аббасе (Иран) (225 км)
Погода в Шардже (ОАЭ) (228 км)
Погода в Сибе (Оман) (234 км)

Пояснения к столбцам:

Ветер - указаны скорость ветра в м/с - средняя за 10 мин, порывы в срок и между сроками (в фигурных скобках) и направление, откуда дует ветер: С - северный, СВ - северо-восточный, В - восточный, ЮВ - юго-восточный, Ю - южный, ЮЗ - юго-западный, З - западный, СЗ - северо-западный.
Видимость - горизонтальная дальность видимости в метрах или километрах. При видимости от 1 до 10 км при отсутствии осадков обычно наблюдается дымка, при ухудшении видимости до 1 км и менее - туман. В сухую погоду видимость может ухудшаться дымом, пылью или мглою.
Явления - указаны атмосферные явления, наблюдавшиеся в срок или в последний час перед сроком; фигурными скобками обозначены явления, наблюдавшиеся между сроками (за 1-3 часа до срока); квадратными скобками обозначены град или гололедные отложения с указанием их диаметра в мм.
Облачность - указаны через наклонную черту общая и нижняя облачность в баллах и высота нижней границы облаков в метрах; квадратными скобками обозначены формы облаков: Ci - перистые, Cs - перисто-слоистые, Cc - перисто-кучевые, Ac - высококучевые, As - высокослоистые, Sc - слоисто-кучевые, Ns - слоисто-дождевые, Cu - кучевые, Cb - кучево-дождевые. Подробнее классификацию облаков см. в Атласе облаков (PDF).
T - Температура воздуха - температура, измеренная на высоте 2 м над землей.
Td - Температура точки росы - температура, при понижении до которой содержащийся в воздухе водяной пар достигнет насыщения.
f - Относительная влажность воздуха - влажноcть воздуха, измеренная на высоте 2 м над землей.
Te - Эффективная температура - температура, которую ощущает одетый по сезону человек в тени. Характеристика душности погоды. При расчете учитывается влияние влажности воздуха и скорости ветра на теплоощущения человека.
Tes - Эффективная температура на солнце - температура, которую ощущает человек, с поправкой на солнечный нагрев. Характеристика знойности погоды. Зависит от высоты солнца над горизонтом, облачности и скорости ветра. Ночью, в пасмурную погоду, а также при ветре 12 м/с и более поправка равна нулю.
P - Атмосферное давление - приведенное к уровню моря атмосферное давление.
Po - Атмосферное давление - измеренное на уровне метеостанции атмосферное давление.
Tmin - Минимальная температура - минимум температуры воздуха на высоте 2 м над землей.
Tmax - Максимальная температура - максимум температуры воздуха на высоте 2 м над землей.
R - Количество осадков - Количество выпавших осадков за период времени, мм. При наведении курсора мыши на число - период времени, за который выпало указанное количество осадков.
R24 - Количество осадков - Количество выпавших осадков за 24 часа, мм.
S - Снежный покров - Высота снежного покрова, см. При наведении курсора мыши на число - состояние снежного покрова и степень покрытия местности в баллах.